This demonstration page uses our WeatherBlox Daily Observations layout. Learn more.

36.17497, -115.13722

Hourly Observations for June 10, 2016

Temp ( °F °C ) Dew Point ( °F °C ) Humidity (%) Winds ( mph kmh ) Pressure ( in mb ) Visibility ( mi km ) Precip ( " mm )
12:53 am 00:53 Clear 90 32.2 37 2.8 15 15 SSW 15 24 29.72 1007 10 16.0934 0 0
1:53 am 01:53 Clear 88 31.1 36 2.2 16 16 S 13 20 29.74 1007 10 16.0934 0 0
2:53 am 02:53 Clear 85 29.4 38 3.3 19 19 SE 9 15 29.75 1007 10 16.0934 0 0
3:53 am 03:53 Clear 85 29.4 37 2.8 18 18 S 12 19 29.76 1008 10 16.0934 0 0
4:53 am 04:53 Clear 83 28.3 40 4.4 22 22 S 13 20 29.78 1008 10 16.0934 0 0
5:53 am 05:53 Sunny 82 27.8 45 7.2 27 27 SSE 14 22 29.8 1009 10 16.0934 0 0
6:53 am 06:53 Sunny 81 27.2 48 8.9 32 32 ESE 12 19 29.84 1010 10 16.0934 0 0
7:53 am 07:53 Sunny 84 28.9 48 8.9 29 29 SE 14 22 29.86 1011 10 16.0934 0 0
8:53 am 08:53 Sunny 87 30.6 48 8.9 26 26 SE 16 26 29.87 1012 10 16.0934 0 0
9:53 am 09:53 Sunny 89 31.7 48 8.9 24 24 SE 13 20 29.87 1012 10 16.0934 0 0
10:53 am 10:53 Sunny 92 33.3 48 8.9 22 22 SSE 15 24 29.85 1011 10 16.0934 0 0
11:53 am 11:53 Sunny 96 35.6 44 6.7 17 17 S 15 24 29.83 1010 10 16.0934 0 0
12:53 pm 12:53 Sunny 99 37.2 41 5 14 14 S 18 30 29.81 1009 10 16.0934 0 0
1:53 pm 13:53 Sunny 100 37.8 40 4.4 13 13 SSW 15 24 29.78 1009 10 16.0934 0 0
2:53 pm 14:53 Sunny 100 37.8 39 3.9 12 12 SSW 10 17 29.76 1008 10 16.0934 0 0
3:53 pm 15:53 Sunny 101 38.3 40 4.4 12 12 SSW 16 26 29.74 1007 10 16.0934 0 0
4:53 pm 16:53 Sunny 102 38.9 42 5.6 13 13 SSW 18 30 29.72 1006 10 16.0934 0 0
5:53 pm 17:53 Sunny 100 37.8 45 7.2 15 15 WSW 15 24 29.71 1006 10 16.0934 0 0
6:53 pm 18:53 Sunny 98 36.7 45 7.2 16 16 W 13 20 29.71 1006 10 16.0934 0 0
7:53 pm 19:53 Sunny 94 34.4 47 8.3 20 20 S 21 33 29.72 1006 10 16.0934 0 0
8:53 pm 20:53 Clear 92 33.3 48 8.9 22 22 S 17 28 29.74 1007 10 16.0934 0 0
9:53 pm 21:53 Clear 91 32.8 49 9.4 24 24 S 14 22 29.77 1008 10 16.0934 0 0
10:53 pm 22:53 Clear 89 31.7 48 8.9 24 24 SSW 17 28 29.77 1008 10 16.0934 0 0
11:53 pm 23:53 Mostly Cloudy 90 32.2 45 7.2 21 21 SSW 9 15 29.77 1008 10 16.0934 0 0

Powered by AerisWeather